TimeCDT,TemperatureF,Dew PointF,Humidity,Sea Level PressureIn,VisibilityMPH,Wind Direction,Wind SpeedMPH,Gust SpeedMPH,PrecipitationIn,Events,Conditions,WindDirDegrees,DateUTC
12:54 AM,59.0,57.0,93,29.84,5.0,Calm,Calm,-,N/A,,Clear,0,2013-06-11 05:54:00
1:54 AM,57.9,57.0,97,29.84,4.0,ESE,3.5,-,N/A,,Clear,120,2013-06-11 06:54:00
2:22 AM,57.2,55.4,94,29.84,3.0,SSE,3.5,-,N/A,,Scattered Clouds,150,2013-06-11 07:22:00
2:47 AM,57.2,55.4,94,29.84,5.0,SE,4.6,-,N/A,,Mostly Cloudy,140,2013-06-11 07:47:00
2:54 AM,57.9,55.9,93,29.83,6.0,SSE,3.5,-,N/A,,Mostly Cloudy,150,2013-06-11 07:54:00
3:21 AM,57.2,55.4,94,29.84,4.0,Calm,Calm,-,N/A,,Mostly Cloudy,0,2013-06-11 08:21:00
3:27 AM,57.2,55.4,94,29.84,1.8,Calm,Calm,-,N/A,,Mostly Cloudy,0,2013-06-11 08:27:00
3:43 AM,57.2,55.4,94,29.84,3.0,Calm,Calm,-,N/A,,Mostly Cloudy,0,2013-06-11 08:43:00
3:54 AM,57.0,55.0,93,29.83,4.0,Calm,Calm,-,N/A,,Mostly Cloudy,0,2013-06-11 08:54:00
4:05 AM,55.4,55.4,100,29.84,1.8,Calm,Calm,-,N/A,,Mostly Cloudy,0,2013-06-11 09:05:00
4:17 AM,55.4,55.4,100,29.84,3.0,Calm,Calm,-,N/A,,Overcast,0,2013-06-11 09:17:00
4:54 AM,57.0,55.0,93,29.84,5.0,Calm,Calm,-,N/A,,Overcast,0,2013-06-11 09:54:00
5:14 AM,57.2,55.4,94,29.85,3.0,Calm,Calm,-,N/A,,Overcast,0,2013-06-11 10:14:00
5:36 AM,57.2,55.4,94,29.86,1.2,Calm,Calm,-,N/A,,Overcast,0,2013-06-11 10:36:00
5:52 AM,57.2,55.4,94,29.86,0.2,Calm,Calm,-,N/A,Fog,Fog,0,2013-06-11 10:52:00
5:54 AM,57.0,55.9,96,29.86,0.2,Calm,Calm,-,N/A,Fog,Fog,0,2013-06-11 10:54:00
6:43 AM,57.2,57.2,100,29.86,0.5,Calm,Calm,-,N/A,Fog,Fog,0,2013-06-11 11:43:00
6:54 AM,57.9,57.0,97,29.86,0.8,Calm,Calm,-,N/A,,Overcast,0,2013-06-11 11:54:00
6:59 AM,57.2,55.4,94,29.87,2.0,Calm,Calm,-,N/A,,Overcast,0,2013-06-11 11:59:00
7:08 AM,57.2,57.2,100,29.88,3.0,Calm,Calm,-,N/A,,Overcast,0,2013-06-11 12:08:00
7:54 AM,57.9,57.0,97,29.88,3.0,NW,3.5,-,N/A,,Overcast,310,2013-06-11 12:54:00
8:54 AM,60.1,59.0,96,29.86,6.0,WSW,3.5,-,N/A,,Overcast,240,2013-06-11 13:54:00
9:35 AM,66.2,60.8,83,29.85,10.0,WSW,3.5,-,N/A,,Scattered Clouds,240,2013-06-11 14:35:00
9:54 AM,68.0,60.1,76,29.84,10.0,Calm,Calm,-,N/A,,Clear,0,2013-06-11 14:54:00
10:54 AM,73.0,61.0,66,29.83,10.0,Variable,3.5,-,N/A,,Clear,0,2013-06-11 15:54:00
11:54 AM,77.0,60.1,56,29.81,10.0,Calm,Calm,-,N/A,,Scattered Clouds,0,2013-06-11 16:54:00
12:54 PM,80.1,55.9,43,29.81,10.0,West,8.1,-,N/A,,Partly Cloudy,260,2013-06-11 17:54:00
1:54 PM,80.1,55.0,42,29.80,10.0,NNW,9.2,-,N/A,,Scattered Clouds,340,2013-06-11 18:54:00
2:54 PM,82.0,55.0,39,29.78,10.0,Calm,Calm,-,N/A,,Scattered Clouds,0,2013-06-11 19:54:00
3:54 PM,81.0,57.0,44,29.79,10.0,North,9.2,-,N/A,,Scattered Clouds,360,2013-06-11 20:54:00
4:54 PM,80.1,55.9,43,29.80,10.0,North,9.2,-,N/A,,Mostly Cloudy,350,2013-06-11 21:54:00
5:54 PM,79.0,55.0,44,29.80,10.0,NW,11.5,16.1,N/A,,Mostly Cloudy,320,2013-06-11 22:54:00
6:54 PM,77.0,52.0,42,29.81,10.0,North,11.5,-,N/A,,Mostly Cloudy,360,2013-06-11 23:54:00
7:54 PM,73.0,60.1,64,29.84,10.0,NE,5.8,-,N/A,,Mostly Cloudy,40,2013-06-12 00:54:00
8:54 PM,71.1,60.1,68,29.85,10.0,Calm,Calm,-,N/A,,Mostly Cloudy,0,2013-06-12 01:54:00
9:54 PM,64.9,59.0,81,29.89,10.0,North,3.5,-,N/A,,Mostly Cloudy,350,2013-06-12 02:54:00
10:54 PM,63.0,59.0,87,29.89,10.0,NNE,3.5,-,N/A,,Mostly Cloudy,20,2013-06-12 03:54:00
11:54 PM,60.1,55.9,86,29.89,10.0,Calm,Calm,-,N/A,,Clear,0,2013-06-12 04:54:00